Regional Weather Roundup
Issued by NWS

Home | Current Version | Previous Version | Graphics & Text | Print | Product List | Glossary On
Versions: 1 2 3 4 5 6 7 8 9 10 11 12 13 14 15 16 17 18 19 20 21 22 23 24 25 26 27 28 29 30 31 32 33 34 35 36 37 38 39 40 41 42 43 44 45 46 47 48 49 50
000
ASUS43 KLMK 250502
RWRKY
KENTUCKY REGIONAL WEATHER ROUNDUP
NATIONAL WEATHER SERVICE LOUISVILLE KY
1200 AM EST THU DEC 25 2014

NOTE "FAIR" INDICATES FEW OR NO CLOUDS BELOW 12,000 FEET
WITH NO SIGNIFICANT WEATHER AND/OR OBSTRUCTIONS TO VISIBILITY.

KYZ001>023-026-027-061>063-070>075-250600-
WESTERN AND SOUTH CENTRAL KENTUCKY

CITY           SKY/WX    TMP DP  RH WIND       PRES   REMARKS
PADUCAH        CLOUDY    40  35  83 W10       29.90R WCI  33
HENDERSON      CLOUDY    39  34  81 W14       29.86R WCI  31
OWENSBORO      CLOUDY    40  36  86 W13       29.87R WCI  32
HOPKINSVILLE   CLOUDY    40  36  86 W15       29.90R WCI  32
BOWLING GREEN  CLOUDY    41  35  79 SW8       29.88R
GLASGOW        NOT AVBL
$$

KYZ024-025-028>034-038-045-046-053-250600-
NORTH CENTRAL KENTUCKY

CITY           SKY/WX    TMP DP  RH WIND       PRES   REMARKS
LOUISVILLE/SDF CLOUDY    40  36  86 SW15      29.81R WCI  32
LOUISVILLE/LOU CLOUDY    41  35  79 SW12G20   29.81R
FORT KNOX      CLOUDY    39  35  84 SW13      29.81R WCI  32
$$

KYZ035>037-039>044-047>052-055>060-089>105-250600-
NORTHEAST KENTUCKY

CITY           SKY/WX    TMP DP  RH WIND       PRES   REMARKS
LEXINGTON      CLOUDY    38  34  85 W14G21    29.80R WCI  30
COVINGTON      CLOUDY    39  33  79 SW7G17    29.74R WCI  34
FRANKFORT      CLOUDY    38  34  85 SW12      29.79R WCI  30
$$

KYZ054-064>069-076>088-106>120-250600-
SOUTHEAST KENTUCKY

CITY           SKY/WX    TMP DP  RH WIND       PRES   REMARKS
JACKSON        CLOUDY    40  37  89 VRB7      29.80R
LONDON         CLOUDY    42  36  79 W10       29.83R
SOMERSET       NOT AVBL
MIDDLESBORO    NOT AVBL
MONTICELLO     MOCLDY    39  35  85 SW3       29.89R
$$



USA.gov is the U.S. government's official web portal to all federal, state and local government web resources and services.